Time,TemperatureF,DewpointF,PressureIn,WindDirection,WindDirectionDegrees,WindSpeedMPH,WindSpeedGustMPH,Humidity,HourlyPrecipIn,Conditions,Clouds,dailyrainin,SolarRadiationWatts/m^2,SoftwareType,DateUTC
2013-03-30 00:02:00,38.0,34.0,-100.00,WNW,298,1.0,4.0,87,0.00,,,0.00,0.000000,,2013-03-30 06:02:00,
2013-03-30 00:12:00,38.0,34.0,-100.00,WNW,298,1.0,4.0,87,0.00,,,0.00,0.000000,,2013-03-30 06:12:00,
2013-03-30 00:23:00,38.0,34.0,-100.00,WNW,298,1.0,4.0,87,0.00,,,0.00,0.000000,,2013-03-30 06:23:00,
2013-03-30 00:32:00,38.0,34.0,-100.00,WNW,298,1.0,4.0,87,0.00,,,0.00,0.000000,,2013-03-30 06:32:00,
2013-03-30 00:40:00,39.0,35.0,-100.00,WSW,254,2.0,5.0,85,0.00,,,0.00,0.000000,,2013-03-30 06:40:00,
2013-03-30 01:02:00,39.0,35.0,-100.00,WSW,254,2.0,5.0,85,0.00,,,0.00,0.000000,,2013-03-30 07:02:00,
2013-03-30 01:12:00,39.0,35.0,-100.00,WSW,254,2.0,5.0,85,0.00,,,0.00,0.000000,,2013-03-30 07:12:00,
2013-03-30 01:22:00,39.0,35.0,-100.00,WSW,254,2.0,5.0,85,0.00,,,0.00,0.000000,,2013-03-30 07:22:00,
2013-03-30 01:32:00,39.0,35.0,-100.00,WSW,254,2.0,5.0,85,0.00,,,0.00,0.000000,,2013-03-30 07:32:00,
2013-03-30 01:40:00,36.0,33.0,-100.00,NNW,328,4.0,8.0,87,0.00,,,0.00,0.000000,,2013-03-30 07:40:00,
2013-03-30 02:02:00,36.0,33.0,-100.00,NNW,328,4.0,8.0,87,0.00,,,0.00,0.000000,,2013-03-30 08:02:00,
2013-03-30 02:12:00,36.0,33.0,-100.00,NNW,328,4.0,8.0,87,0.00,,,0.00,0.000000,,2013-03-30 08:12:00,
2013-03-30 02:22:00,36.0,33.0,-100.00,NNW,328,4.0,8.0,87,0.00,,,0.00,0.000000,,2013-03-30 08:22:00,
2013-03-30 02:32:00,36.0,33.0,-100.00,NNW,328,4.0,8.0,87,0.00,,,0.00,0.000000,,2013-03-30 08:32:00,
2013-03-30 02:40:00,37.0,33.0,-100.00,WNW,283,2.0,7.0,84,0.00,,,0.00,0.000000,,2013-03-30 08:40:00,
2013-03-30 03:02:00,37.0,33.0,-100.00,WNW,283,2.0,7.0,84,0.00,,,0.00,0.000000,,2013-03-30 09:02:00,
2013-03-30 03:12:00,37.0,33.0,-100.00,WNW,283,2.0,7.0,84,0.00,,,0.00,0.000000,,2013-03-30 09:12:00,
2013-03-30 03:22:00,37.0,33.0,-100.00,WNW,283,2.0,7.0,84,0.00,,,0.00,0.000000,,2013-03-30 09:22:00,
2013-03-30 03:40:00,37.0,34.0,-100.00,NW,310,6.0,10.0,87,0.00,,,0.00,0.000000,,2013-03-30 09:40:00,
2013-03-30 04:02:00,37.0,34.0,-100.00,NW,310,6.0,10.0,87,0.00,,,0.00,0.000000,,2013-03-30 10:02:00,
2013-03-30 04:13:00,37.0,34.0,-100.00,NW,310,6.0,10.0,87,0.00,,,0.00,0.000000,,2013-03-30 10:13:00,
2013-03-30 04:23:00,37.0,34.0,-100.00,NW,310,6.0,10.0,87,0.00,,,0.00,0.000000,,2013-03-30 10:23:00,
2013-03-30 04:33:00,37.0,34.0,-100.00,NW,310,6.0,10.0,87,0.00,,,0.00,0.000000,,2013-03-30 10:33:00,
2013-03-30 04:40:00,37.0,34.0,-100.00,NW,319,5.0,11.0,88,0.00,,,0.00,0.000000,,2013-03-30 10:40:00,
2013-03-30 05:03:00,37.0,34.0,-100.00,NW,319,5.0,11.0,88,0.00,,,0.00,0.000000,,2013-03-30 11:03:00,
2013-03-30 05:12:00,37.0,34.0,-100.00,NW,319,5.0,11.0,88,0.00,,,0.00,0.000000,,2013-03-30 11:12:00,
2013-03-30 05:22:00,37.0,34.0,-100.00,NW,319,5.0,11.0,88,0.00,,,0.00,0.000000,,2013-03-30 11:22:00,
2013-03-30 05:33:00,37.0,34.0,-100.00,NW,319,5.0,11.0,88,0.00,,,0.00,0.000000,,2013-03-30 11:33:00,
2013-03-30 05:40:00,36.0,32.0,-100.00,NW,322,10.0,13.0,84,0.00,,,0.00,0.000000,,2013-03-30 11:40:00,
2013-03-30 06:02:00,36.0,32.0,-100.00,NW,322,10.0,13.0,84,0.00,,,0.00,0.000000,,2013-03-30 12:02:00,
2013-03-30 06:12:00,36.0,32.0,-100.00,NW,322,10.0,13.0,84,0.00,,,0.00,0.000000,,2013-03-30 12:12:00,
2013-03-30 06:22:00,36.0,32.0,-100.00,NW,322,10.0,13.0,84,0.00,,,0.00,0.000000,,2013-03-30 12:22:00,
2013-03-30 06:32:00,36.0,32.0,-100.00,NW,322,10.0,13.0,84,0.00,,,0.00,0.000000,,2013-03-30 12:32:00,
2013-03-30 06:40:00,32.0,29.0,-100.00,West,269,5.0,12.0,89,0.00,,,0.00,0.000000,,2013-03-30 12:40:00,
2013-03-30 07:02:00,32.0,29.0,-100.00,West,269,5.0,12.0,89,0.00,,,0.00,0.000000,,2013-03-30 13:02:00,
2013-03-30 07:12:00,32.0,29.0,-100.00,West,269,5.0,12.0,89,0.00,,,0.00,0.000000,,2013-03-30 13:12:00,
2013-03-30 07:22:00,32.0,29.0,-100.00,West,269,5.0,12.0,89,0.00,,,0.00,0.000000,,2013-03-30 13:22:00,
2013-03-30 07:32:00,32.0,29.0,-100.00,West,269,5.0,12.0,89,0.00,,,0.00,0.000000,,2013-03-30 13:32:00,
2013-03-30 07:40:00,37.0,32.0,-100.00,NW,305,7.0,11.0,83,0.00,,,0.00,32.000000,,2013-03-30 13:40:00,
2013-03-30 08:02:00,37.0,32.0,-100.00,NW,305,7.0,11.0,83,0.00,,,0.00,32.000000,,2013-03-30 14:02:00,
2013-03-30 08:11:00,37.0,32.0,-100.00,NW,305,7.0,11.0,83,0.00,,,0.00,32.000000,,2013-03-30 14:11:00,
2013-03-30 08:23:00,37.0,32.0,-100.00,NW,305,7.0,11.0,83,0.00,,,0.00,32.000000,,2013-03-30 14:23:00,
2013-03-30 08:32:00,37.0,32.0,-100.00,NW,305,7.0,11.0,83,0.00,,,0.00,32.000000,,2013-03-30 14:32:00,
2013-03-30 08:40:00,45.0,35.0,-100.00,WNW,286,9.0,13.0,67,0.00,,,0.00,239.000000,,2013-03-30 14:40:00,
2013-03-30 09:03:00,45.0,35.0,-100.00,WNW,286,9.0,13.0,67,0.00,,,0.00,239.000000,,2013-03-30 15:03:00,
2013-03-30 09:12:00,45.0,35.0,-100.00,WNW,286,9.0,13.0,67,0.00,,,0.00,239.000000,,2013-03-30 15:12:00,
2013-03-30 09:22:00,45.0,35.0,-100.00,WNW,286,9.0,13.0,67,0.00,,,0.00,239.000000,,2013-03-30 15:22:00,
2013-03-30 09:33:00,45.0,35.0,-100.00,WNW,286,9.0,13.0,67,0.00,,,0.00,239.000000,,2013-03-30 15:33:00,
2013-03-30 09:40:00,48.0,35.0,-100.00,NW,309,9.0,14.0,60,0.00,,,0.00,457.000000,,2013-03-30 15:40:00,
2013-03-30 10:03:00,48.0,35.0,-100.00,NW,309,9.0,14.0,60,0.00,,,0.00,457.000000,,2013-03-30 16:03:00,
2013-03-30 10:13:00,48.0,35.0,-100.00,NW,309,9.0,14.0,60,0.00,,,0.00,457.000000,,2013-03-30 16:13:00,
2013-03-30 10:23:00,48.0,35.0,-100.00,NW,309,9.0,14.0,60,0.00,,,0.00,457.000000,,2013-03-30 16:23:00,
2013-03-30 10:33:00,48.0,35.0,-100.00,NW,309,9.0,14.0,60,0.00,,,0.00,457.000000,,2013-03-30 16:33:00,
2013-03-30 10:40:00,50.0,32.0,-100.00,NW,304,10.0,17.0,50,0.00,,,0.00,684.000000,,2013-03-30 16:40:00,
2013-03-30 11:02:00,50.0,32.0,-100.00,NW,304,10.0,17.0,50,0.00,,,0.00,684.000000,,2013-03-30 17:02:00,
2013-03-30 11:13:00,50.0,32.0,-100.00,NW,304,10.0,17.0,50,0.00,,,0.00,684.000000,,2013-03-30 17:13:00,
2013-03-30 11:23:00,50.0,32.0,-100.00,NW,304,10.0,17.0,50,0.00,,,0.00,684.000000,,2013-03-30 17:23:00,
2013-03-30 11:32:00,50.0,32.0,-100.00,NW,304,10.0,17.0,50,0.00,,,0.00,684.000000,,2013-03-30 17:32:00,
2013-03-30 11:40:00,54.0,30.0,-100.00,WNW,298,11.0,19.0,39,0.00,,,0.00,818.000000,,2013-03-30 17:40:00,
2013-03-30 12:03:00,54.0,30.0,-100.00,WNW,298,11.0,19.0,39,0.00,,,0.00,818.000000,,2013-03-30 18:03:00,
2013-03-30 12:12:00,54.0,30.0,-100.00,WNW,298,11.0,19.0,39,0.00,,,0.00,818.000000,,2013-03-30 18:12:00,
2013-03-30 12:22:00,54.0,30.0,-100.00,WNW,298,11.0,19.0,39,0.00,,,0.00,818.000000,,2013-03-30 18:22:00,
2013-03-30 12:32:00,54.0,30.0,-100.00,WNW,298,11.0,19.0,39,0.00,,,0.00,818.000000,,2013-03-30 18:32:00,
2013-03-30 12:40:00,56.0,27.0,-100.00,NW,310,12.0,20.0,33,0.00,,,0.00,841.000000,,2013-03-30 18:40:00,
2013-03-30 13:03:00,56.0,27.0,-100.00,NW,310,12.0,20.0,33,0.00,,,0.00,841.000000,,2013-03-30 19:03:00,
2013-03-30 13:13:00,56.0,27.0,-100.00,NW,310,12.0,20.0,33,0.00,,,0.00,841.000000,,2013-03-30 19:13:00,
2013-03-30 13:22:00,56.0,27.0,-100.00,NW,310,12.0,20.0,33,0.00,,,0.00,841.000000,,2013-03-30 19:22:00,
2013-03-30 13:32:00,56.0,27.0,-100.00,NW,310,12.0,20.0,33,0.00,,,0.00,841.000000,,2013-03-30 19:32:00,
2013-03-30 13:40:00,53.0,27.0,-100.00,NW,314,14.0,22.0,36,0.00,,,0.00,682.000000,,2013-03-30 19:40:00,
2013-03-30 14:02:00,53.0,27.0,-100.00,NW,314,14.0,22.0,36,0.00,,,0.00,682.000000,,2013-03-30 20:02:00,
2013-03-30 14:12:00,53.0,27.0,-100.00,NW,314,14.0,22.0,36,0.00,,,0.00,682.000000,,2013-03-30 20:12:00,
2013-03-30 14:22:00,53.0,27.0,-100.00,NW,314,14.0,22.0,36,0.00,,,0.00,682.000000,,2013-03-30 20:22:00,
2013-03-30 14:32:00,53.0,27.0,-100.00,NW,314,14.0,22.0,36,0.00,,,0.00,682.000000,,2013-03-30 20:32:00,
2013-03-30 14:40:00,51.0,30.0,-100.00,WNW,285,11.0,31.0,45,0.00,,,0.00,354.000000,,2013-03-30 20:40:00,
2013-03-30 15:02:00,51.0,30.0,-100.00,WNW,285,11.0,31.0,45,0.00,,,0.00,354.000000,,2013-03-30 21:02:00,
2013-03-30 15:12:00,51.0,30.0,-100.00,WNW,285,11.0,31.0,45,0.00,,,0.00,354.000000,,2013-03-30 21:12:00,
2013-03-30 15:22:00,51.0,30.0,-100.00,WNW,285,11.0,31.0,45,0.00,,,0.00,354.000000,,2013-03-30 21:22:00,
2013-03-30 15:40:00,47.0,43.0,-100.00,West,277,6.0,43.0,86,0.03,,,0.03,362.000000,,2013-03-30 21:40:00,
2013-03-30 16:03:00,47.0,43.0,-100.00,West,277,6.0,43.0,86,0.03,,,0.03,362.000000,,2013-03-30 22:03:00,
2013-03-30 16:13:00,47.0,43.0,-100.00,West,277,6.0,43.0,86,0.03,,,0.03,362.000000,,2013-03-30 22:13:00,
2013-03-30 16:23:00,47.0,43.0,-100.00,West,277,6.0,43.0,86,0.03,,,0.03,362.000000,,2013-03-30 22:23:00,
2013-03-30 16:33:00,47.0,43.0,-100.00,West,277,6.0,43.0,86,0.03,,,0.03,362.000000,,2013-03-30 22:33:00,
2013-03-30 16:40:00,46.0,33.0,-100.00,North,352,21.0,34.0,60,0.01,,,0.04,551.000000,,2013-03-30 22:40:00,
2013-03-30 17:02:00,46.0,33.0,-100.00,North,352,21.0,34.0,60,0.01,,,0.04,551.000000,,2013-03-30 23:02:00,
2013-03-30 17:12:00,46.0,33.0,-100.00,North,352,21.0,34.0,60,0.01,,,0.04,551.000000,,2013-03-30 23:12:00,
2013-03-30 17:22:00,46.0,33.0,-100.00,North,352,21.0,34.0,60,0.01,,,0.04,551.000000,,2013-03-30 23:22:00,
2013-03-30 17:32:00,46.0,33.0,-100.00,North,352,21.0,34.0,60,0.01,,,0.04,551.000000,,2013-03-30 23:32:00,
2013-03-30 17:40:00,46.0,32.0,-100.00,NNW,335,17.0,29.0,59,0.00,,,0.04,437.000000,,2013-03-30 23:40:00,
2013-03-30 18:02:00,46.0,32.0,-100.00,NNW,335,17.0,29.0,59,0.00,,,0.04,437.000000,,2013-03-31 00:02:00,
2013-03-30 18:12:00,46.0,32.0,-100.00,NNW,335,17.0,29.0,59,0.00,,,0.04,437.000000,,2013-03-31 00:12:00,
2013-03-30 18:22:00,46.0,32.0,-100.00,NNW,335,17.0,29.0,59,0.00,,,0.04,437.000000,,2013-03-31 00:22:00,
2013-03-30 18:32:00,46.0,32.0,-100.00,NNW,335,17.0,29.0,59,0.00,,,0.04,437.000000,,2013-03-31 00:32:00,
2013-03-30 18:40:00,45.0,31.0,-100.00,NNW,327,17.0,26.0,58,0.00,,,0.04,194.000000,,2013-03-31 00:40:00,
2013-03-30 19:02:00,45.0,31.0,-100.00,NNW,327,17.0,26.0,58,0.00,,,0.04,194.000000,,2013-03-31 01:02:00,
2013-03-30 19:12:00,45.0,31.0,-100.00,NNW,327,17.0,26.0,58,0.00,,,0.04,194.000000,,2013-03-31 01:12:00,
2013-03-30 19:22:00,45.0,31.0,-100.00,NNW,327,17.0,26.0,58,0.00,,,0.04,194.000000,,2013-03-31 01:22:00,
2013-03-30 19:32:00,45.0,31.0,-100.00,NNW,327,17.0,26.0,58,0.00,,,0.04,194.000000,,2013-03-31 01:32:00,
2013-03-30 19:40:00,40.0,30.0,-100.00,NNW,338,6.0,21.0,68,0.00,,,0.04,28.000000,,2013-03-31 01:40:00,
2013-03-30 20:02:00,40.0,30.0,-100.00,NNW,338,6.0,21.0,68,0.00,,,0.04,28.000000,,2013-03-31 02:02:00,
2013-03-30 20:13:00,40.0,30.0,-100.00,NNW,338,6.0,21.0,68,0.00,,,0.04,28.000000,,2013-03-31 02:13:00,
2013-03-30 20:22:00,40.0,30.0,-100.00,NNW,338,6.0,21.0,68,0.00,,,0.04,28.000000,,2013-03-31 02:22:00,
2013-03-30 20:32:00,40.0,30.0,-100.00,NNW,338,6.0,21.0,68,0.00,,,0.04,28.000000,,2013-03-31 02:32:00,
2013-03-30 20:40:00,37.0,28.0,-100.00,NNW,345,8.0,12.0,71,0.00,,,0.04,0.000000,,2013-03-31 02:40:00,
2013-03-30 21:02:00,37.0,28.0,-100.00,NNW,345,8.0,12.0,71,0.00,,,0.04,0.000000,,2013-03-31 03:02:00,
2013-03-30 21:12:00,37.0,28.0,-100.00,NNW,345,8.0,12.0,71,0.00,,,0.04,0.000000,,2013-03-31 03:12:00,
2013-03-30 21:22:00,37.0,28.0,-100.00,NNW,345,8.0,12.0,71,0.00,,,0.04,0.000000,,2013-03-31 03:22:00,
2013-03-30 21:33:00,37.0,28.0,-100.00,NNW,345,8.0,12.0,71,0.00,,,0.04,0.000000,,2013-03-31 03:33:00,
2013-03-30 21:40:00,34.0,26.0,-100.00,NW,304,3.0,11.0,73,0.00,,,0.04,0.000000,,2013-03-31 03:40:00,
2013-03-30 22:03:00,34.0,-99.9,-100.00,NW,304,3.0,11.0,73,0.00,,,0.04,0.000000,,2013-03-31 04:03:00,
2013-03-30 22:13:00,34.0,26.0,-100.00,NW,304,3.0,11.0,73,0.00,,,0.04,0.000000,,2013-03-31 04:13:00,
2013-03-30 22:23:00,34.0,26.0,-100.00,NW,304,3.0,11.0,73,0.00,,,0.04,0.000000,,2013-03-31 04:23:00,
2013-03-30 22:32:00,34.0,26.0,-100.00,NW,304,3.0,11.0,73,0.00,,,0.04,0.000000,,2013-03-31 04:32:00,
2013-03-30 22:40:00,32.0,24.0,-100.00,NW,325,5.0,10.0,71,0.00,,,0.04,0.000000,,2013-03-31 04:40:00,
2013-03-30 23:02:00,32.0,24.0,-100.00,NW,325,5.0,10.0,71,0.00,,,0.04,0.000000,,2013-03-31 05:02:00,
2013-03-30 23:12:00,32.0,24.0,-100.00,NW,325,5.0,10.0,71,0.00,,,0.04,0.000000,,2013-03-31 05:12:00,
2013-03-30 23:22:00,32.0,24.0,-100.00,NW,325,5.0,10.0,71,0.00,,,0.04,0.000000,,2013-03-31 05:22:00,
2013-03-30 23:32:00,32.0,24.0,-100.00,NW,325,5.0,10.0,71,0.00,,,0.04,0.000000,,2013-03-31 05:32:00,
2013-03-30 23:40:00,32.0,24.0,-100.00,WSW,247,4.0,7.0,71,0.00,,,0.04,0.000000,,2013-03-31 05:40:00,